www.pogodaiklimat.ru

Погода и климат >> Архив погоды >> Монголия >> Эрдэни


ПОГОДА в Эрдэни

  • Прогноз погоды в Эрдэни
  • Монитор погоды в Эрдэни

АРХИВ ПОГОДЫ в Эрдэни

Время (UTC), дата Ветер
(напр.,м/с)
 
Видим.   Явления Облачность Т
(С)
Тd
(С)
f
(%)
Тe
(С)
Тes
(С)
Комфортность P
(гПа)
Po
(гПа)
Тmin
(С)
Tmax
(С)
R
(мм)
R24
(мм)
S
(см)
18 9.06 В 2 н/о 3/0
[Cs]
+17.9 +5.5 44 +18 +18 1002.9 873.3
21 9.06 штиль 0 н/о 4/0
[Ac lent Ci]
+16.2 +6.9 54 +16 +16 1004.0 873.6
00 10.06 Ю 2 50 км 4/0
[Ac trans Cs]
+17.6 +6.5 48 +18 +20 1004.3 874.4 +14.7
03 10.06 З 4 50 км 4/0
[Ac cast Ci ing]
+24.5 +5.3 29 +24 +32 комфорт 1001.2 874.5
06 10.06 З 4
{12}
50 км 10/4 1000 м
[Sc As op]
+25.9 +4.9 26 +25 +27 комфорт 1000.6 874.6
09 10.06 ЮЗ 4 50 км 3/0
[Ac lent Ci]
+27.8 +3.5 21 +26 +31 жарко 997.8 872.8
12 10.06 З 2 50 км ясно +28.2 +0.8 17 +26 +27 жарко 997.1 872.4 +29.3
15 10.06 З 6 н/о ясно +23.2 -3.2 17 +22 +22 комфорт 1001.0 873.8
18 10.06 ЮЗ 2 н/о ясно +17.0 -3.7 24 +17 +17 1005.4 875.1
21 10.06 Ю 2 н/о ясно +13.8 -3.9 29 +14 +14 1007.4 875.5
00 11.06 ЮВ 2 50 км 5/0
[Ac cast Cs]
+16.7 -2.4 27 +17 +19 1007.3 876.6 +12.1
03 11.06 СЗ 4 50 км 5/0
[Ac lent Cs]
+24.7 -3.6 15 +23 +30 комфорт 1003.5 876.6
06 11.06 ЮЗ 4 50 км 3/0
[Ci]
+30.6 -5.8 9 +27 +39 жарко 999.4 875.3
09 11.06 З 4
{11}
50 км 5/3 1000 м
[Cu hum Ci]
+31.9 -4.9 9 +28 +33 жарко 997.1 873.8
12 11.06 С 7
{13}
50 км 4/0
[Ac lent Ci]
+30.2 -2.3 12 +27 +27 жарко 998.0 873.9 +32.3
15 11.06 С 6 н/о 3/0
[Ac lent Ci]
+25.5 -3.0 15 +23 +23 комфорт 1001.8 875.4
18 11.06 ЮВ 2 н/о 3/0
[Ac lent Ci]
+18.1 -2.8 24 +19 +19 1006.7 876.7
21 11.06 ЮВ 3 н/о ясно +16.0 -3.0 27 +16 +16 1008.5 877.4
00 12.06 В 2 50 км 3/0
[Ac trans Ci fib]
+20.4 -2.0 22 +21 +23 комфорт 1008.0 878.8 +14.7
03 12.06 Ю 3 50 км 3/0
[Ci]
+27.4 -2.4 14 +25 +36 комфорт 1004.5 878.5
06 12.06 ЮЗ 3 50 км 6/1 1000 м
[Cu hum Ac lent Ci]
+30.3 -2.2 12 +27 +37 жарко 1001.3 876.9
09 12.06 В 3 50 км 8/3 1000 м
[Cu med, cong Ac cast Cs]
+31.4 -2.6 11 +28 +32 жарко 998.5 874.9
12 12.06 СЗ 3 50 км 9/0
[As trans]
+30.9 -3.0 11 +27 +28 жарко 997.9 874.1 +32.5
15 12.06 ЮВ 3 н/о 9/0
[As trans]
+24.3 -0.8 19 +23 +23 комфорт 1001.7 874.9
18 12.06 В 2 н/о 10/0
[As op]
+23.6 -0.7 20 +22 +22 комфорт 1002.3 875.1
21 12.06 В 4 н/о 10/5 1000 м
[Sc As op]
+23.5 +2.9 26 +23 +23 комфорт 1003.2 875.9
00 13.06 В 5 50 км 10/5 1000 м
[Sc As op]
+23.8 +3.7 27 +23 +24 комфорт 1004.1 876.7 +21.4
03 13.06 ЮВ 8 50 км 10/5 1000 м
[Sc As op]
+26.1 +4.0 24 +25 +25 комфорт 1004.0 877.6
06 13.06 В 8 50 км 10/6 1000 м
[Sc As op]
+27.1 +4.2 23 +26 +26 жарко 1002.0 876.3
09 13.06 В 7
{13}
50 км 10/6 1000 м
[Sc As op]
+26.5 +6.0 27 +26 +26 жарко 999.7 874.0
12 13.06 СВ 2 50 км 10/6 1000 м
[Sc As op]
+25.8 +7.4 31 +26 +26 жарко 998.5 872.6 +27.9
15 13.06 СЗ 6
{12}
н/о слаб. дождь 10/8 600 м
[Cu med, cong As op]
+17.7 +14.4 81 +17 +17 1006.1 876.0
18 13.06 ЮВ 1 н/о слаб. дождь 10/8 600 м
[Cu med, cong As op]
+16.1 +14.6 91 +17 +17 1005.9 875.2
21 13.06 ЮВ 2 н/о слаб. дождь 10/8 600 м
[Cu med, cong As op]
+15.7 +14.2 91 +16 +16 1004.8 874.0
00 14.06 З 4 50 км {дождь} 10/6 1000 м
[Sc As op]
+15.5 +13.2 86 +15 +15 1005.7 874.7 +15.4 4
03 14.06 З 4 50 км 4/3 1000 м
[Cu med, cong Ci]
+18.6 +10.2 58 +19 +25 1004.5 875.0
06 14.06 З 4 50 км 4/3 1000 м
[Cu med, cong Ci]
+23.3 +4.8 30 +23 +32 комфорт 1001.0 873.9
09 14.06 З 5 50 км 3/3 1000 м
[Cu med, cong]
+24.9 +3.0 24 +24 +28 комфорт 998.7 872.5
12 14.06 З 8 50 км 3/3 1000 м
[Cu med, cong]
+23.1 +0.2 22 +22 +22 комфорт 999.8 872.7 +25.6
15 14.06 З 4 н/о 3/0
[Cs]
+19.2 +2.5 33 +19 +19 1002.3 873.4
18 14.06 ЮЗ 4 н/о 10/0
[As op]
+16.8 +4.5 44 +16 +16 1003.6 873.5
21 14.06 С 1 н/о 10/4 1000 м
[Sc As op]
+16.4 +5.4 48 +17 +17 1003.1 872.9
00 15.06 З 4 50 км 3/0
[Cs]
+16.8 +6.3 50 +16 +18 1003.6 873.5 +15.3
03 15.06 З 4 50 км 3/3 1000 м
[Cu med, cong]
+20.0 +4.1 35 +21 +27 комфорт 1002.3 873.6
06 15.06 З 5
{12}
50 км 6/6 1000 м
[Cb calv]
+22.7 +2.8 27 +22 +26 комфорт 999.6 872.4
09 15.06 З 8 50 км 8/8 1000 м
[Cb calv]
+24.5 +1.4 22 +23 +24 комфорт 997.7 871.4
12 15.06 СЗ 8
{14}
50 км 5/5 1000 м
[Cu med, cong]
+23.9 +3.2 26 +23 +23 комфорт 998.0 871.4 +25.5
15 15.06 СЗ 5 н/о ясно +20.5 +4.7 35 +21 +21 комфорт 1001.5 873.1
18 15.06 СЗ 2 н/о ясно +17.4 +6.3 48 +18 +18 1003.3 873.4
21 15.06 ЮЗ 1 н/о 5/0
[Ac cast Cs]
+13.3 +4.7 56 +14 +14 1004.9 873.1
00 16.06 ЮЗ 2 50 км 3/0
[Cs]
+17.2 +6.1 48 +18 +20 1004.0 873.9 +12.2
03 16.06 З 5 50 км 1/1 1000 м
[Cu hum]
+24.2 +4.6 28 +24 +31 комфорт 1000.1 873.4
06 16.06 СЗ 6
{13}
50 км 5/4 1000 м
[Cu med, cong Ci]
+28.5 +1.9 18 +26 +31 жарко 996.0 871.5
09 16.06 СЗ 6
{14}
50 км 4/4 1000 м
[Cu med, cong]
+30.0 +1.4 16 +27 +30 жарко 994.0 870.4

 

Местоположение метеостанции Эрдэни (Монголия): широта 45.15 долгота 97.77 высота над уровнем моря 2417 м.

В архиве по умолчанию представлена погода в Эрдэни за последнюю неделю. Архивные данные за месяц целиком и за предыдущие месяцы, начиная с января 2011 года, Вы можете получить, выбрав интересующий диапазон дат из раскрывающегося списка и нажав кнопку "Ввод!".


*Определитесь, кто Вы:
робот инопланетянин человек

Внимание! Время в таблицах - всемирное. Для получения местного времени необходимо прибавить поправку, которая равна 8 ч.

Смотрите также архив погоды в соседних городах и на ближайших метеорологических станциях:

Погода в Амарбуйантайане (Монголия) (94 км)
Погода в Алтае (Монголия) (182 км)
Погода в Баянбулаге (Монголия) (188 км)
Погода в Галууте (Монголия) (251 км)
Погода в Баянхонгоре (Монголия) (251 км)
Погода в Наомаоху (Синьцзян-Уйгурский автономный район, Китай) (272 км)
Погода в Улиастае (Монголия) (298 км)
Погода в Шинэ Уса (Монголия) (317 км)
Погода в Тонхиле (Монголия) (327 км)
Погода в Богде (Монголия) (350 км)

Пояснения к столбцам:

Ветер - указаны скорость ветра в м/с - средняя за 10 мин, порывы в срок и между сроками (в фигурных скобках) и направление, откуда дует ветер: С - северный, СВ - северо-восточный, В - восточный, ЮВ - юго-восточный, Ю - южный, ЮЗ - юго-западный, З - западный, СЗ - северо-западный.
Видимость - горизонтальная дальность видимости в метрах или километрах. При видимости от 1 до 10 км при отсутствии осадков обычно наблюдается дымка, при ухудшении видимости до 1 км и менее - туман. В сухую погоду видимость может ухудшаться дымом, пылью или мглою.
Явления - указаны атмосферные явления, наблюдавшиеся в срок или в последний час перед сроком; фигурными скобками обозначены явления, наблюдавшиеся между сроками (за 1-3 часа до срока); квадратными скобками обозначены град или гололедные отложения с указанием их диаметра в мм.
Облачность - указаны через наклонную черту общая и нижняя облачность в баллах и высота нижней границы облаков в метрах; квадратными скобками обозначены формы облаков: Ci - перистые, Cs - перисто-слоистые, Cc - перисто-кучевые, Ac - высококучевые, As - высокослоистые, Sc - слоисто-кучевые, Ns - слоисто-дождевые, Cu - кучевые, Cb - кучево-дождевые. Подробнее классификацию облаков см. в Атласе облаков (PDF).
T - Температура воздуха - температура, измеренная на высоте 2 м над землей.
Td - Температура точки росы - температура, при понижении до которой содержащийся в воздухе водяной пар достигнет насыщения.
f - Относительная влажность воздуха - влажноcть воздуха, измеренная на высоте 2 м над землей.
Te - Эффективная температура - температура, которую ощущает одетый по сезону человек в тени. Характеристика душности погоды. При расчете учитывается влияние влажности воздуха и скорости ветра на теплоощущения человека.
Tes - Эффективная температура на солнце - температура, которую ощущает человек, с поправкой на солнечный нагрев. Характеристика знойности погоды. Зависит от высоты солнца над горизонтом, облачности и скорости ветра. Ночью, в пасмурную погоду, а также при ветре 12 м/с и более поправка равна нулю.
P - Атмосферное давление - приведенное к уровню моря атмосферное давление.
Po - Атмосферное давление - измеренное на уровне метеостанции атмосферное давление.
Tmin - Минимальная температура - минимум температуры воздуха на высоте 2 м над землей.
Tmax - Максимальная температура - максимум температуры воздуха на высоте 2 м над землей.
R - Количество осадков - Количество выпавших осадков за период времени, мм. При наведении курсора мыши на число - период времени, за который выпало указанное количество осадков.
R24 - Количество осадков - Количество выпавших осадков за 24 часа, мм.
S - Снежный покров - Высота снежного покрова, см. При наведении курсора мыши на число - состояние снежного покрова и степень покрытия местности в баллах.